Change the Weather History Date:

Monday, May 13, 2013

  Actual Average Record
Temperature  
Mean Temperature 76 °F -  
Max Temperature 84 °F 85 °F 91 °F (1998)
Min Temperature 66 °F 67 °F 64 °F (2001)
Cooling Degree Days 12    
Growing Degree Days 26 (Base 50)    
Moisture  
Dew Point 62 °F    
Average Humidity 68    
Maximum Humidity 92    
Minimum Humidity 36    
Precipitation  
Precipitation 0.00 in - - ()
Sea Level Pressure  
Sea Level Pressure 30.10 in    
Wind  
Wind Speed 5 mph (North)    
Max Wind Speed 15 mph    
Max Gust Speed 23 mph    
Visibility 10 miles    
Events      
Averages and records for this station are not official NWS values.
T = Trace of Precipitation, MM = Missing Value Source: NWS Daily Summary

Daily Weather History Graph

Daily Weather History Graph

Search for Another Location

Airport or City:

Trip Planner

Search our weather history database for the weather conditions in past years. The results will help you decide how hot, cold, wet, or windy it might be!

Date:

Astronomy

May. 13, 2013 Rise Set
Actual Time 6:41 AM EDT 8:11 PM EDT
Civil Twilight 6:16 AM EDT 8:36 PM EDT
Nautical Twilight 5:45 AM EDT 9:07 PM EDT
Astronomical Twilight 5:14 AM EDT 9:39 PM EDT
Moon 9:28 AM EDT (5/13) 11:19 PM EDT (5/13)
Length of Visible Light 14h 20m
Length of Day
13h 29m
Waxing Crescent, 12% of the Moon is Illuminated
May 13
Waxing Crescent
May 18
First Quarter
May 25
Full
May 31
Last Quarter
Jun 8
New

Hourly Weather History & Observations

Time (EDT) Temp. Heat Index Dew Point Humidity Pressure Visibility Wind Dir Wind Speed Gust Speed Precip Events Conditions
12:56 AM 71.6 °F - 68.0 °F 88% 30.05 in 10.0 mi NNW 2.3 mph - N/A   Partly Cloudy
1:58 AM 70.9 °F - 68.2 °F 91% 30.05 in 10.0 mi NNW 2.3 mph - N/A   Partly Cloudy
2:58 AM 71.1 °F - 68.4 °F 91% 30.04 in 10.0 mi NNW 2.3 mph - N/A   Mostly Cloudy
3:58 AM 72.0 °F - 69.3 °F 91% 30.04 in 10.0 mi NNW 5.8 mph - N/A   Clear
4:58 AM 71.8 °F - 69.1 °F 91% 30.04 in 10.0 mi NNW 3.5 mph - N/A   Clear
5:58 AM 71.4 °F - 68.7 °F 91% 30.05 in 10.0 mi North 2.3 mph - N/A   Partly Cloudy
6:58 AM 71.6 °F - 69.3 °F 92% 30.06 in 10.0 mi Calm Calm - N/A   Scattered Clouds
7:58 AM 73.0 °F - 70.5 °F 92% 30.08 in 10.0 mi NNW 4.6 mph - N/A   Scattered Clouds
8:18 AM 73.4 °F - 69.8 °F 88% 30.08 in 10.0 mi NNW 2.3 mph - N/A   Mostly Cloudy
8:55 AM 73.8 °F - 67.5 °F 81% 30.10 in 10.0 mi NNE 8.1 mph - N/A   Mostly Cloudy
8:59 AM 73.8 °F - 67.5 °F 81% 30.10 in 10.0 mi NNE 10.4 mph - N/A   Mostly Cloudy
9:58 AM 74.5 °F - 64.0 °F 70% 30.12 in 10.0 mi NNE 5.8 mph - N/A   Partly Cloudy
10:58 AM 76.6 °F - 61.7 °F 60% 30.14 in 10.0 mi NNE 5.8 mph - N/A   Partly Cloudy
11:58 AM 82.8 °F 82.8 °F 59.5 °F 45% 30.15 in 10.0 mi NNW 8.1 mph - N/A   Scattered Clouds
12:58 PM 82.0 °F 82.1 °F 58.6 °F 45% 30.15 in 10.0 mi North 8.1 mph - N/A   Mostly Cloudy
1:58 PM 84.4 °F 84.2 °F 59.9 °F 43% 30.14 in 10.0 mi NNW 9.2 mph - N/A   Mostly Cloudy
2:58 PM 82.9 °F 82.7 °F 58.3 °F 43% 30.13 in 10.0 mi NNW 15.0 mph 23.0 mph N/A   Partly Cloudy
4:58 PM 79.9 °F - 50.5 °F 36% 30.11 in 10.0 mi NNW 9.2 mph - N/A   Clear
5:58 PM 78.6 °F - 50.0 °F 37% 30.11 in 10.0 mi NNW 10.4 mph - N/A   Clear
6:58 PM 75.9 °F - 50.5 °F 41% 30.10 in 10.0 mi NNW 11.5 mph - N/A   Clear
7:58 PM 71.8 °F - 52.2 °F 50% 30.13 in 10.0 mi North 9.2 mph - N/A   Clear
8:58 PM 69.3 °F - 55.0 °F 60% 30.14 in 10.0 mi North 8.1 mph - N/A   Clear
9:58 PM 69.6 °F - 56.3 °F 63% 30.14 in 10.0 mi North 9.2 mph - N/A   Clear
10:58 PM 69.6 °F - 56.7 °F 63% 30.15 in 10.0 mi NNE 5.8 mph - N/A   Clear
11:58 PM 66.9 °F - 51.3 °F 57% 30.16 in 10.0 mi NNE 6.9 mph - N/A   Clear